[[{"header":{"parameterUnit":"m.s-1","parameterCategory":1,"la1":30.2991,"la2":30.254,"lo1":-89.0895,"lo2":-89.0444,"dy":0.0017,"dx":0.0017,"nx":28,"ny":28,"refTime":"2024-10-09T03:00:00:Z","depth":0,"parameterNumber":2,"parameterNumberName":"U-component_of_WINDS"},"data":[0,0,0,0,0,0,0,0,0,0,0,0,0,0,0,0,0,0,0,0,0,0,0,0,0,0,0,0,0,0,0,0,0,0,0,0,0,0,0,0,0,0,0,0,0,0,0,0,0,0,0,0,0,0,0,0,0,0,-0.5603,-0.5604,0,-0.5708,-0.5709,-0.571,-0.5703,-0.5701,-0.57,-0.5698,-0.5812,-0.5816,-0.582,0,0,0,0,0,0,0,0,0,0,0,0,0,-0.5402,-0.5406,-0.5603,-0.5604,-0.5606,-0.5708,-0.5709,-0.5711,-0.5703,-0.5701,-0.5699,-0.5698,-0.581,-0.5815,-0.5821,0,0,0,0,0,0,0,0,0,0,0,0,0,-0.5497,-0.5407,-0.5603,-0.5614,-0.5616,-0.5707,-0.5709,-0.5711,-0.5704,-0.5701,-0.5699,-0.5697,-0.5808,-0.5815,-0.5822,-0.591,0,0,-0.5842,-0.5845,0,0,0,0,0,0,0,0,-0.5491,-0.5504,-0.5611,-0.5613,-0.5616,-0.569,-0.568,-0.5778,-0.5704,-0.5671,-0.5698,-0.5695,-0.5773,-0.5783,-0.5808,-0.5916,-0.592,-0.5843,-0.5847,-0.585,-0.5852,0,0,0,0,0,0,0,-0.5485,-0.55,-0.5645,-0.5613,-0.5616,-0.5616,-0.5627,-0.5698,-0.5734,-0.5673,-0.5673,-0.5685,-0.5774,-0.5801,-0.5811,-0.5922,-0.5843,-0.5849,-0.5853,-0.5855,-0.611,-0.6112,0,0,0,0,0,0,-0.5475,-0.5494,-0.5641,-0.5648,-0.5546,-0.5621,-0.5633,-0.5669,-0.5733,-0.5741,-0.5687,-0.5684,-0.5791,-0.5803,-0.5814,-0.5924,-0.585,-0.5856,-0.586,-0.6107,-0.611,-0.6113,0,0,0,0,0,0,-0.5471,-0.5488,-0.5637,-0.5571,-0.559,-0.5627,-0.5667,-0.5672,-0.5699,-0.5744,-0.5751,-0.5708,-0.579,-0.5805,-0.5886,-0.5928,-0.5859,-0.5865,-0.6104,-0.6108,-0.6112,-0.6143,0,0,0,0,0,0,-0.5465,-0.5486,-0.5519,-0.5572,-0.5593,-0.5706,-0.5669,-0.5676,-0.571,-0.5707,-0.5765,-0.5772,-0.5789,-0.5876,-0.5893,-0.5936,-0.587,-0.61,-0.6106,-0.6111,-0.6139,-0.6148,-0.6156,0,0,0,0,0,-0.5458,-0.5525,-0.5521,-0.5539,-0.5635,-0.5708,-0.5721,-0.5737,-0.5713,-0.5748,-0.5776,-0.5771,-0.592,-0.5885,-0.5904,-0.5949,-0.6098,-0.6104,-0.611,-0.6135,-0.6146,-0.6156,0,0,0,0,0,0,-0.5479,-0.5532,-0.5528,-0.5614,-0.5656,-0.5707,-0.5751,-0.5748,-0.58,-0.5796,-0.5815,-0.5828,-0.591,-0.5938,-0.5897,-0.6039,-0.6006,-0.6016,-0.6019,-0.603,-0.6038,-0.6031,-0.5876,0,0,0,0,0,-0.5493,-0.5546,-0.559,-0.5662,-0.5683,-0.5713,-0.5746,-0.5754,-0.58,-0.5818,-0.5853,-0.5899,-0.5957,-0.5994,-0.6049,-0.6142,-0.6156,-0.6183,-0.6191,-0.6198,-0.6207,-0.626,-0.6273,-0.6133,-0.6133,-0.6133,0,0,-0.5524,-0.556,-0.5592,-0.5667,-0.5701,-0.5758,-0.5729,-0.579,-0.5833,-0.5828,-0.5907,-0.5934,-0.5987,-0.6075,-0.6115,-0.61,-0.6249,-0.6206,-0.6211,-0.6217,-0.6268,-0.6281,-0.6293,-0.6138,-0.6137,-0.6136,0,0,-0.561,-0.5641,-0.5705,-0.5739,-0.5789,-0.5809,-0.5824,-0.5875,-0.5892,-0.5971,-0.5969,-0.6021,-0.6119,-0.6157,-0.619,-0.6289,-0.6287,-0.6307,-0.6352,-0.6404,-0.6415,-0.6425,-0.6463,-0.6476,-0.6315,-0.6315,-0.6315,0,-0.5643,-0.5726,-0.5738,-0.58,-0.5834,-0.583,-0.5896,-0.5929,-0.5996,-0.6021,-0.6002,-0.6125,-0.616,-0.6258,-0.6282,-0.6307,-0.6328,-0.6302,-0.6412,-0.6422,-0.6431,-0.6468,-0.6482,-0.6318,-0.6317,-0.6317,-0.6317,0,-0.5765,-0.5823,-0.5869,-0.5932,-0.597,-0.6034,-0.6058,-0.6096,-0.6101,-0.6123,-0.6204,-0.6246,-0.631,-0.6333,-0.6339,-0.6432,-0.6422,-0.6407,-0.6375,-0.6447,-0.6482,-0.6495,-0.6321,-0.632,-0.6319,-0.6319,0,0,-0.5869,-0.5937,-0.5954,-0.5983,-0.6038,-0.6085,-0.6148,-0.6209,-0.6243,-0.6289,-0.6345,-0.6427,-0.6414,-0.6451,-0.6461,-0.6505,-0.6584,-0.6486,-0.6487,-0.6505,-0.6692,-0.6705,-0.6721,-0.6582,-0.6584,-0.6587,-0.6689,0,-0.5962,-0.6074,-0.6087,-0.6187,-0.6242,-0.6239,-0.6295,-0.6336,-0.6358,-0.6409,-0.6434,-0.6493,-0.647,-0.6492,-0.6536,-0.6565,-0.6623,-0.6558,-0.6637,-0.664,-0.6627,-0.6738,-0.6752,-0.6847,-0.6702,-0.6704,-0.6706,0,-0.6087,-0.6135,-0.624,-0.6288,-0.6312,-0.6362,-0.6419,-0.6467,-0.6515,-0.6527,-0.6568,-0.6572,-0.664,-0.6603,-0.6699,-0.6654,-0.6687,-0.6707,-0.6711,-0.6721,-0.6679,-0.6755,-0.6877,-0.6892,-0.6727,-0.6725,-0.6724,0,-0.6155,-0.6246,-0.6321,-0.6346,-0.6403,-0.6439,-0.6465,-0.6509,-0.6545,-0.6596,-0.662,-0.6678,-0.6711,-0.6757,-0.6778,-0.6748,-0.6873,-0.6837,-0.6889,-0.6888,-0.6918,-0.6916,-0.705,-0.6934,-0.6934,-0.6933,-0.6933,0,-0.626,-0.6325,-0.6353,-0.6399,-0.6473,-0.6487,-0.656,-0.6585,-0.6625,-0.6678,-0.6678,-0.6728,-0.6751,-0.6805,-0.6822,-0.69,-0.6915,-0.6929,-0.6933,-0.6931,-0.6929,-0.6955,-0.695,-0.6937,-0.6936,-0.6936,-0.6935,0,-0.635,-0.6371,-0.6453,-0.65,-0.6513,-0.6566,-0.6607,-0.6653,-0.6674,-0.6741,-0.6758,-0.6791,-0.6855,-0.6879,-0.6957,-0.6969,-0.706,-0.7058,-0.7044,-0.7046,-0.7097,-0.7093,-0.7254,-0.7277,-0.7143,-0.7144,-0.7145,0,-0.6417,-0.6467,-0.6518,-0.6553,-0.658,-0.6635,-0.6672,-0.6688,-0.6726,-0.6783,-0.6823,-0.6886,-0.6938,-0.7041,-0.7073,-0.7134,-0.7134,-0.7187,-0.7144,-0.714,-0.7139,-0.7137,-0.7143,-0.7196,-0.7197,-0.7198,-0.7199,0,-0.6534,-0.6541,-0.6592,-0.6648,-0.6691,-0.6735,-0.6779,-0.6808,-0.6831,-0.6874,-0.6938,-0.6978,-0.7057,-0.7121,-0.7183,-0.7212,-0.7211,-0.7211,-0.7227,-0.7227,-0.7218,-0.7226,-0.7069,-0.7209,-0.7208,-0.7207,-0.7206,-0.7206,-0.6616,-0.6661,-0.6704,-0.6762,-0.6796,-0.6837,-0.6883,-0.6908,-0.6961,-0.7026,-0.7032,-0.7102,-0.7149,-0.7232,-0.7263,-0.732,-0.7306,-0.7328,-0.7334,-0.734,-0.7345,-0.7206,-0.7331,-0.733,-0.733,-0.733,-0.733,0,-0.6736,-0.6763,-0.6815,-0.6876,-0.6921,-0.6912,-0.696,-0.7,-0.7061,-0.7103,-0.7154,-0.7229,-0.729,-0.7327,-0.7389,-0.7427,-0.7429,-0.7444,-0.7443,-0.745,-0.7352,-0.7334,-0.7442,-0.7442,-0.7442,-0.7442,-0.7442,-0.7442,-0.6803,-0.6879,-0.6892,-0.6985,-0.7013,-0.7079,-0.7108,-0.7146,-0.718,-0.7263,-0.7314,-0.7336,-0.7378,-0.7443,-0.75,-0.7509,-0.7533,-0.755,-0.7559,-0.7468,-0.7456,-0.7446,-0.7428,-0.7554,-0.7555,-0.7652,-0.7653,-0.7654]},{"header":{"parameterUnit":"m.s-1","parameterCategory":1,"la1":30.2991,"la2":30.254,"lo1":-89.0895,"lo2":-89.0444,"dy":0.0017,"dx":0.0017,"nx":28,"ny":28,"refTime":"2024-10-09T03:00:00:Z","depth":0,"parameterNumber":3,"parameterNumberName":"V-component_of_WINDS"},"data":[0,0,0,0,0,0,0,0,0,0,0,0,0,0,0,0,0,0,0,0,0,0,0,0,0,0,0,0,0,0,0,0,0,0,0,0,0,0,0,0,0,0,0,0,0,0,0,0,0,0,0,0,0,0,0,0,0,0,-4.6275,-4.6276,0,-4.6343,-4.6344,-4.6345,-4.6275,-4.6273,-4.627,-4.6267,-4.6334,-4.6339,-4.6343,0,0,0,0,0,0,0,0,0,0,0,0,0,-4.6082,-4.6086,-4.6275,-4.6276,-4.6277,-4.6343,-4.6344,-4.6345,-4.6276,-4.6273,-4.6269,-4.6266,-4.6333,-4.6338,-4.6343,0,0,0,0,0,0,0,0,0,0,0,0,0,-4.616,-4.6087,-4.6275,-4.625,-4.6249,-4.6343,-4.6344,-4.6345,-4.6277,-4.6273,-4.6268,-4.6265,-4.6331,-4.6338,-4.6344,-4.6465,0,0,-4.6364,-4.6367,0,0,0,0,0,0,0,0,-4.6155,-4.6167,-4.6253,-4.6252,-4.6251,-4.6297,-4.6301,-4.6385,-4.6278,-4.6266,-4.6267,-4.6263,-4.6325,-4.6332,-4.6353,-4.6468,-4.6471,-4.6364,-4.6368,-4.6371,-4.6373,0,0,0,0,0,0,0,-4.615,-4.6163,-4.6302,-4.6254,-4.6253,-4.6235,-4.6242,-4.6316,-4.6317,-4.6267,-4.6262,-4.6271,-4.6324,-4.6347,-4.6354,-4.6472,-4.6364,-4.637,-4.6374,-4.6376,-4.669,-4.6694,0,0,0,0,0,0,-4.6148,-4.6159,-4.63,-4.6304,-4.6192,-4.6242,-4.6249,-4.6286,-4.6316,-4.6317,-4.6274,-4.6268,-4.6338,-4.6347,-4.6357,-4.6501,-4.6371,-4.6377,-4.6381,-4.6686,-4.6691,-4.6696,0,0,0,0,0,0,-4.6144,-4.6161,-4.6297,-4.623,-4.6246,-4.6249,-4.6292,-4.629,-4.6313,-4.6322,-4.6322,-4.6299,-4.6335,-4.6347,-4.6439,-4.6502,-4.638,-4.6386,-4.668,-4.6687,-4.6693,-4.6791,0,0,0,0,0,0,-4.6139,-4.616,-4.6207,-4.6232,-4.625,-4.638,-4.6295,-4.6294,-4.6325,-4.6317,-4.6345,-4.6346,-4.6333,-4.643,-4.6445,-4.6509,-4.6391,-4.6675,-4.6683,-4.6691,-4.6782,-4.68,-4.6816,0,0,0,0,0,-4.6132,-4.6231,-4.621,-4.6227,-4.6309,-4.6384,-4.6394,-4.6378,-4.633,-4.6377,-4.6383,-4.6345,-4.6493,-4.644,-4.6457,-4.6523,-4.6671,-4.6681,-4.6691,-4.6775,-4.6797,-4.6815,0,0,0,0,0,0,-4.6212,-4.6234,-4.621,-4.632,-4.6351,-4.6372,-4.643,-4.6402,-4.6446,-4.6436,-4.6414,-4.6421,-4.6518,-4.6529,-4.647,-4.6642,-4.6574,-4.6588,-4.6632,-4.6653,-4.6669,-4.6665,-4.6396,0,0,0,0,0,-4.6242,-4.6302,-4.6317,-4.6413,-4.6429,-4.6428,-4.6459,-4.6445,-4.6475,-4.6487,-4.6499,-4.6529,-4.6582,-4.6618,-4.6667,-4.6783,-4.6788,-4.6837,-4.6854,-4.6867,-4.688,-4.6943,-4.6965,-4.6729,-4.6729,-4.6728,0,0,-4.6306,-4.6325,-4.6364,-4.6429,-4.6451,-4.6513,-4.6439,-4.6507,-4.6552,-4.6497,-4.6585,-4.6595,-4.6626,-4.6731,-4.6778,-4.6744,-4.6946,-4.688,-4.6891,-4.6896,-4.6956,-4.6978,-4.6998,-4.6735,-4.6734,-4.6733,0,0,-4.6453,-4.6474,-4.6556,-4.658,-4.6614,-4.6612,-4.6632,-4.6657,-4.6663,-4.675,-4.671,-4.6763,-4.6855,-4.688,-4.6904,-4.7061,-4.7028,-4.7078,-4.7166,-4.7227,-4.7246,-4.7262,-4.7319,-4.734,-4.709,-4.709,-4.709,0,-4.6528,-4.662,-4.6602,-4.6674,-4.6704,-4.6657,-4.6741,-4.6764,-4.6812,-4.6834,-4.6795,-4.691,-4.6927,-4.7038,-4.7076,-4.7097,-4.7119,-4.7075,-4.7245,-4.7261,-4.7276,-4.733,-4.7352,-4.7096,-4.7095,-4.7095,-4.7094,0,-4.6711,-4.6775,-4.6838,-4.6887,-4.6924,-4.7001,-4.6993,-4.7033,-4.7014,-4.7016,-4.7106,-4.7126,-4.7179,-4.7204,-4.7186,-4.7312,-4.729,-4.7248,-4.7179,-4.7305,-4.7356,-4.7376,-4.7104,-4.7102,-4.7101,-4.7099,0,0,-4.6912,-4.695,-4.6974,-4.6996,-4.703,-4.7079,-4.7154,-4.7206,-4.7241,-4.7275,-4.7337,-4.7416,-4.7378,-4.7406,-4.7391,-4.7445,-4.7569,-4.7396,-4.7397,-4.7429,-4.7709,-4.7742,-4.7766,-4.7547,-4.755,-4.7553,-4.7707,0,-4.7062,-4.7193,-4.7178,-4.7303,-4.7362,-4.7319,-4.7384,-4.7411,-4.7415,-4.7465,-4.7468,-4.7525,-4.747,-4.7487,-4.7538,-4.7543,-4.7625,-4.7531,-4.7604,-4.7607,-4.76,-4.7792,-4.7827,-4.7971,-4.7727,-4.773,-4.7732,0,-4.7254,-4.7297,-4.7429,-4.7454,-4.7479,-4.7538,-4.7585,-4.7634,-4.7664,-4.7662,-4.7694,-4.7669,-4.7743,-4.7672,-4.7773,-4.771,-4.7738,-4.7745,-4.7751,-4.7758,-4.7679,-4.7806,-4.8016,-4.8039,-4.7763,-4.7761,-4.7758,0,-4.739,-4.748,-4.757,-4.759,-4.7622,-4.7665,-4.768,-4.7706,-4.7739,-4.778,-4.7801,-4.7849,-4.7876,-4.7914,-4.7903,-4.7851,-4.8007,-4.7934,-4.8008,-4.8009,-4.8044,-4.8043,-4.8264,-4.806,-4.806,-4.806,-4.8059,0,-4.756,-4.7642,-4.7632,-4.7688,-4.7778,-4.776,-4.785,-4.7859,-4.7883,-4.7939,-4.7903,-4.7957,-4.7938,-4.799,-4.7981,-4.8067,-4.8079,-4.808,-4.8077,-4.8084,-4.8084,-4.8104,-4.8094,-4.8065,-4.8064,-4.8063,-4.8062,0,-4.7727,-4.7724,-4.782,-4.7842,-4.785,-4.7916,-4.7934,-4.7987,-4.7987,-4.8059,-4.8074,-4.8075,-4.8134,-4.8126,-4.8192,-4.8186,-4.8293,-4.8277,-4.8284,-4.8281,-4.8356,-4.835,-4.8599,-4.8631,-4.8405,-4.8407,-4.8409,0,-4.7837,-4.7899,-4.7929,-4.7965,-4.7983,-4.8041,-4.8075,-4.8058,-4.8095,-4.8134,-4.8181,-4.8238,-4.8282,-4.8379,-4.8384,-4.8434,-4.842,-4.8504,-4.8428,-4.8433,-4.8423,-4.8421,-4.8427,-4.852,-4.8522,-4.8524,-4.8526,0,-4.8032,-4.8027,-4.8078,-4.8129,-4.817,-4.8209,-4.8243,-4.8274,-4.8261,-4.8304,-4.8365,-4.8399,-4.8467,-4.8523,-4.857,-4.8584,-4.8554,-4.855,-4.857,-4.8579,-4.8581,-4.8582,-4.8327,-4.8544,-4.8543,-4.8541,-4.854,-4.8539,-4.8175,-4.8229,-4.8259,-4.8316,-4.8341,-4.8374,-4.8425,-4.8432,-4.8483,-4.8538,-4.8524,-4.8593,-4.8621,-4.8682,-4.8701,-4.8754,-4.8723,-4.8752,-4.8759,-4.8767,-4.8777,-4.8571,-4.8762,-4.8762,-4.8761,-4.8761,-4.876,0,-4.837,-4.8387,-4.844,-4.849,-4.8536,-4.8503,-4.8539,-4.8579,-4.8641,-4.867,-4.8715,-4.8785,-4.884,-4.885,-4.8902,-4.8942,-4.893,-4.8957,-4.8954,-4.8958,-4.8801,-4.8779,-4.8966,-4.8966,-4.8966,-4.8966,-4.8966,-4.8966,-4.8477,-4.8567,-4.8566,-4.8667,-4.8683,-4.8752,-4.8775,-4.8806,-4.8829,-4.891,-4.8956,-4.8962,-4.8983,-4.9036,-4.9085,-4.9086,-4.9107,-4.9141,-4.9137,-4.899,-4.8969,-4.895,-4.8929,-4.9145,-4.9145,-4.929,-4.9291,-4.9292]}]]